Regional Weather Roundup
Issued by NWS

Home | Current Version | Previous Version | Graphics & Text | Print | Product List | Glossary On
Versions: 1 2 3 4 5 6 7 8 9 10 11 12 13 14 15 16 17 18 19 20 21 22 23 24 25 26 27 28 29 30 31 32 33 34 35 36 37 38 39 40 41 42 43 44 45 46 47 48 49 50
000
ASUS43 KLMK 011102
RWRKY
KENTUCKY REGIONAL WEATHER ROUNDUP
NATIONAL WEATHER SERVICE LOUISVILLE KY
700 AM EDT FRI AUG 01 2014

NOTE "FAIR" INDICATES FEW OR NO CLOUDS BELOW 12,000 FEET
WITH NO SIGNIFICANT WEATHER AND/OR OBSTRUCTIONS TO VISIBILITY.

KYZ001>023-026-027-061>063-070>075-011200-
WESTERN AND SOUTH CENTRAL KENTUCKY

CITY           SKY/WX    TMP DP  RH WIND       PRES   REMARKS
PADUCAH        MOCLDY    63  60  90 CALM      30.08R
HENDERSON      MOCLDY    61  57  88 CALM      30.08R VSB 1
OWENSBORO      PTCLDY    63  62  96 CALM      30.09R FOG
HOPKINSVILLE   CLEAR     59  59 100 N5        30.08R
BOWLING GREEN  CLEAR     60  56  86 CALM      30.09R FOG
GLASGOW        NOT AVBL
$$

KYZ024-025-028>034-038-045-046-053-011200-
NORTH CENTRAL KENTUCKY

CITY           SKY/WX    TMP DP  RH WIND       PRES   REMARKS
LOUISVILLE/SDF PTCLDY    64  59  83 SE3       30.10R
LOUISVILLE/LOU CLEAR     62  59  90 CALM      30.11R
FORT KNOX      CLEAR     58  57  95 N2        30.09R
$$

KYZ035>037-039>044-047>052-055>060-089>105-011200-
NORTHEAST KENTUCKY

CITY           SKY/WX    TMP DP  RH WIND       PRES   REMARKS
LEXINGTON      CLEAR     60  57  89 CALM      30.12R FOG
COVINGTON      PTCLDY    65  62  90 CALM      30.12R FOG
FRANKFORT      CLEAR     59  57  93 CALM      30.10R
$$

KYZ054-064>069-076>088-106>120-011200-
SOUTHEAST KENTUCKY

CITY           SKY/WX    TMP DP  RH WIND       PRES   REMARKS
JACKSON        MOCLDY    64  59  83 E3        30.12R
LONDON         PTCLDY    62  59  90 CALM      30.12R FOG
SOMERSET       NOT AVBL
MIDDLESBORO    CLOUDY    61  61 100 CALM      30.13R FOG
MONTICELLO     SUNNY     58  57  96 CALM      30.12R FOG
$$




USA.gov is the U.S. government's official web portal to all federal, state and local government web resources and services.